Location: Feigenhofen
(48.4939°N, 10.7793°E)
Time: 15:31:28
(UTC+00:00)

Resurs 1-4 Rocket - Pass Details

Date: 26 May 2022
Orbit: 800 x 813 km, 98.7° (Epoch: 28 June)

Event Time Altitude Azimuth Distance (km) Brightness Sun altitude
Rises 01:20:47 0° 12° (NNE) 3,322 6.8 -14.9°
Reaches altitude 10° 01:23:08 10° 10° (N) 2,389 5.7 -14.7°
Maximum altitude 01:28:22 67° 289° (WNW) 870 2.2 -14.2°
Enters shadow 01:31:58 20° 211° (SSW) 1,764 3.2 -13.9°
